CW8633 Weather Reports


Display with metric or nautical units.
time (UTC)temp
F
wind
direction
speed
MPH
gust
MPH
rain 1hr
in
rain 24hr
in
rain mn
in
humidity
%
barometer
mb
20260901223624 79 206 6.0 10.0 0.00 0.00 0.00 39 1013.0
20260901222617 80 212 4.0 11.0 0.00 0.00 0.00 39 1013.1
20260901221628 81 194 8.0 14.0 0.00 0.00 0.00 37 1013.1
20260901220619 81 232 11.0 16.0 0.00 0.00 0.00 37 1013.2
20260901215624 80 228 8.0 12.0 0.00 0.00 0.00 37 1013.5
20260901214615 80 217 6.0 10.0 0.00 0.00 0.00 41 1013.5
20260901213627 79 167 7.0 11.0 0.00 0.00 0.00 41 1013.7
20260901212638 79 188 8.0 12.0 0.00 0.00 0.00 42 1014.0
20260901211627 79 198 6.0 12.0 0.00 0.00 0.00 43 1014.4
20260901210619 78 213 4.0 10.0 0.00 0.00 0.00 45 1014.6
20260901205640 78 199 4.0 13.0 0.00 0.00 0.00 45 1014.8
20260901204628 78 232 4.0 11.0 0.00 0.00 0.00 45 1014.9
20260901203639 78 252 6.0 11.0 0.00 0.00 0.00 46 1014.9
20260901202614 77 257 6.0 12.0 0.00 0.00 0.00 45 1015.1
20260901201623 77 206 7.0 12.0 0.00 0.00 0.00 45 1015.3
20260901200615 76 241 7.0 11.0 0.00 0.00 0.00 46 1015.3
20260901195618 76 167 6.0 11.0 0.00 0.00 0.00 48 1015.3
20260901194652 75 225 4.0 8.0 0.00 0.00 0.00 48 1015.5
20260901193620 75 269 4.0 9.0 0.00 0.00 0.00 48 1015.7
20260901192629 75 216 6.0 12.0 0.00 0.00 0.00 48 1015.9
20260901191620 75 273 7.0 14.0 0.00 0.00 0.00 48 1016.0
20260901190615 74 246 5.0 10.0 0.00 0.00 0.00 49 1016.0
20260901185618 74 223 4.0 8.0 0.00 0.00 0.00 49 1016.1
20260901184630 74 236 3.0 8.0 0.00 0.00 0.00 49 1016.3
20260901183622 74 272 5.0 8.0 0.00 0.00 0.00 50 1016.4
20260901182618 73 281 3.0 9.0 0.00 0.00 0.00 52 1016.4
20260901181629 72 261 5.0 9.0 0.00 0.00 0.00 55 1016.5
20260901180628 71 284 4.0 8.0 0.00 0.00 0.00 59 1016.7
20260901175649 71 286 2.0 6.0 0.00 0.00 0.00 61 1016.8
20260901174618 70 300 3.0 5.0 0.00 0.00 0.00 64 1016.9
20260901173613 69 275 3.0 6.0 0.00 0.00 0.00 64 1017.0
20260901172624 69 261 2.0 5.0 0.00 0.00 0.00 66 1017.0
20260901171635 68 319 2.0 8.0 0.00 0.00 0.00 67 1017.1
20260901170646 68 327 3.0 6.0 0.00 0.00 0.00 68 1017.1
20260901165631 68 326 2.0 4.0 0.00 0.00 0.00 70 1017.1
20260901164623 67 278 2.0 5.0 0.00 0.00 0.00 69 1017.0
20260901163631 66 320 3.0 6.0 0.00 0.00 0.00 71 1017.1
20260901162641 65 288 1.0 4.0 0.00 0.00 0.00 71 1017.1
20260901161613 65 220 2.0 5.0 0.00 0.00 0.00 72 1017.1
20260901160623 65 277 2.0 4.0 0.00 0.00 0.00 73 1017.2
20260901155624 64 242 2.0 4.0 0.00 0.00 0.00 75 1017.1
20260901154615 63 239 1.0 7.0 0.00 0.00 0.00 74 1017.2
20260901153630 63 204 3.0 5.0 0.00 0.00 0.00 76 1017.2
20260901152639 62 237 2.0 5.0 0.00 0.00 0.00 79 1017.3
20260901151628 61 217 2.0 4.0 0.00 0.00 0.00 81 1017.4
20260901150618 60 246 1.0 4.0 0.00 0.00 0.00 83 1017.3
20260901145622 60 247 2.0 4.0 0.00 0.00 0.00 84 1017.3
20260901144612 59 245 2.0 5.0 0.00 0.00 0.00 84 1017.4
20260901143623 59 236 3.0 5.0 0.00 0.00 0.00 85 1017.4
20260901142633 58 190 2.0 3.0 0.00 0.00 0.00 85 1017.3
20260901141627 57 132 1.0 2.0 0.00 0.00 0.00 86 1017.3
20260901140618 56 132 0.0 3.0 0.00 0.00 0.00 87 1017.2
20260901135618 55 132 2.0 3.0 0.00 0.00 0.00 86 1017.3
20260901134626 55 119 1.0 2.0 0.00 0.00 0.00 85 1017.1
20260901133636 55 118 1.0 2.0 0.00 0.00 0.00 85 1017.0
20260901132628 55 118 2.0 4.0 0.00 0.00 0.00 85 1016.9
20260901131620 55 124 0.0 2.0 0.00 0.00 0.00 86 1016.9
20260901130612 55 124 1.0 3.0 0.00 0.00 0.00 86 1016.7
20260901125634 55 124 2.0 4.0 0.00 0.00 0.00 86 1016.8
20260901124648 55 124 0.0 3.0 0.00 0.00 0.00 87 1016.8
20260901123618 55 124 1.0 3.0 0.00 0.00 0.00 87 1016.9
20260901122628 56 241 1.0 3.0 0.00 0.00 0.00 87 1016.9
20260901121618 56 243 1.0 3.0 0.00 0.00 0.00 87 1016.9
20260901120614 57 243 0.0 0.0 0.00 0.00 0.00 86 1016.8
20260901115614 57 243 0.0 0.0 0.00 0.00 0.00 86 1016.9
20260901114624 58 243 0.0 0.0 0.00 0.00 0.00 86 1016.8
20260901113613 58 244 0.0 0.0 0.00 0.00 0.00 86 1016.8
20260901112629 58 244 0.0 2.0 0.00 0.00 0.00 86 1016.8
20260901111620 59 244 1.0 2.0 0.00 0.00 0.00 84 1016.7
20260901110630 60 244 1.0 3.0 0.00 0.00 0.00 83 1016.7
20260901105615 60 290 1.0 5.0 0.00 0.00 0.00 83 1016.8
20260901104626 60 281 1.0 3.0 0.00 0.00 0.00 81 1016.7
20260901103636 60 77 0.0 3.0 0.00 0.00 0.00 81 1016.7
20260901102625 60 77 3.0 4.0 0.00 0.00 0.00 81 1016.6
20260901101635 61 77 2.0 5.0 0.00 0.00 0.00 82 1016.6
20260901100627 61 78 2.0 5.0 0.00 0.00 0.00 81 1016.6
20260901095626 61 86 1.0 3.0 0.00 0.00 0.00 81 1016.6
20260901094617 61 86 2.0 4.0 0.00 0.00 0.00 81 1016.5
20260901093627 61 86 3.0 7.0 0.00 0.00 0.00 81 1016.5
20260901092621 61 113 3.0 4.0 0.00 0.00 0.00 81 1016.7
20260901091630 61 166 0.0 0.0 0.00 0.00 0.00 80 1016.8
20260901090621 62 166 0.0 1.0 0.00 0.00 0.00 77 1016.9
20260901085621 62 166 1.0 2.0 0.00 0.00 0.00 76 1016.7
20260901084615 62 166 2.0 5.0 0.00 0.00 0.00 74 1016.7
20260901083626 63 99 2.0 6.0 0.00 0.00 0.00 73 1016.8
20260901082616 63 80 1.0 4.0 0.00 0.00 0.00 71 1016.8
20260901081625 62 80 3.0 4.0 0.00 0.00 0.00 71 1016.8
20260901080640 62 80 2.0 4.0 0.00 0.00 0.00 73 1016.9
20260901075620 62 80 3.0 3.0 0.00 0.00 0.00 73 1016.7
20260901074612 62 80 2.0 3.0 0.00 0.00 0.00 73 1016.7
20260901073623 63 80 2.0 3.0 0.00 0.00 0.00 72 1016.7
20260901072617 63 80 2.0 4.0 0.00 0.00 0.00 72 1016.7
20260901071626 63 80 2.0 6.0 0.00 0.00 0.00 71 1016.7
20260901070614 63 107 3.0 7.0 0.00 0.00 0.00 71 1016.7
20260901065614 63 91 3.0 7.0 0.00 0.00 0.00 72 1017.0
20260901064629 63 95 4.0 7.0 0.00 0.00 0.00 73 1017.0
20260901063620 63 105 2.0 3.0 0.00 0.00 0.00 73 1017.2
20260901062629 62 105 1.0 6.0 0.00 0.00 0.00 74 1017.2
20260901061620 62 128 2.0 5.0 0.00 0.00 0.00 76 1017.2
20260901060622 62 138 1.0 3.0 0.00 0.00 0.00 77 1017.1
20260901055622 62 138 2.0 5.0 0.00 0.00 0.00 76 1017.0
20260901054613 62 138 3.0 4.0 0.00 0.00 0.00 75 1017.0
20260901053622 62 144 2.0 5.0 0.00 0.00 0.00 75 1017.0
20260901052638 63 242 0.0 2.0 0.00 0.00 0.00 74 1017.0
20260901051629 63 242 1.0 7.0 0.00 0.00 0.00 73 1016.9
20260901050640 63 259 3.0 7.0 0.00 0.00 0.00 72 1016.7
20260901045641 64 247 3.0 7.0 0.00 0.00 0.00 70 1016.7
20260901044630 64 236 3.0 7.0 0.00 0.00 0.00 67 1016.7
20260901043625 65 213 5.0 9.0 0.00 0.00 0.00 65 1016.8
20260901042636 65 242 3.0 8.0 0.00 0.00 0.00 62 1016.9
20260901041625 65 196 3.0 9.0 0.00 0.00 0.00 63 1016.8
20260901040616 66 188 6.0 11.0 0.00 0.00 0.00 61 1016.8
20260901035622 65 190 8.0 12.0 0.00 0.00 0.00 61 1016.8
20260901034653 65 180 9.0 14.0 0.00 0.00 0.00 63 1016.6
20260901033622 64 172 9.0 13.0 0.00 0.00 0.00 67 1016.7
20260901032633 62 209 6.0 9.0 0.00 0.00 0.00 74 1016.7
20260901031628 62 198 5.0 9.0 0.00 0.00 0.00 76 1016.8
20260901030618 62 228 6.0 11.0 0.00 0.00 0.00 75 1017.0
20260901025640 63 194 7.0 16.0 0.00 0.00 0.00 72 1016.9
20260901024630 64 228 7.0 17.0 0.00 0.00 0.00 68 1016.7
20260901023625 64 213 9.0 14.0 0.00 0.00 0.00 67 1016.5
20260901022615 65 212 11.0 19.0 0.00 0.00 0.00 64 1016.3
20260901021626 65 196 14.0 28.0 0.00 0.00 0.00 63 1016.0
20260901020617 66 204 17.0 32.0 0.00 0.00 0.00 60 1015.7
20260901015623 70 220 15.0 26.0 0.00 0.00 0.00 54 1015.4
20260901014652 72 185 14.0 25.0 0.00 0.00 0.00 46 1014.9
20260901013620 77 212 9.0 14.0 0.00 0.00 0.00 39 1014.8
20260901012629 78 135 0.0 3.0 0.00 0.00 0.00 33 1014.1
20260901011622 78 84 2.0 6.0 0.00 0.00 0.00 33 1014.1
20260901010612 79 83 5.0 8.0 0.00 0.00 0.00 33 1014.0
20260901005632 79 96 5.0 10.0 0.00 0.00 0.00 32 1014.0
20260901004622 80 116 4.0 7.0 0.00 0.00 0.00 34 1013.8
20260901003615 80 133 0.0 3.0 0.00 0.00 0.00 37 1013.9
20260901002626 80 248 2.0 3.0 0.00 0.00 0.00 37 1014.0
20260901001616 80 248 1.0 2.0 0.00 0.00 0.00 39 1014.1
20260901000627 81 248 1.0 3.0 0.00 0.00 0.00 38 1014.2
20260831235626 81 248 3.0 4.0 0.00 0.00 0.00 36 1014.1
20260831234619 81 248 2.0 3.0 0.00 0.00 0.00 36 1014.1
20260831233629 81 248 2.0 3.0 0.00 0.00 0.00 36 1014.1
20260831232619 81 248 2.0 6.0 0.00 0.00 0.00 35 1014.1
20260831231613 82 248 1.0 4.0 0.00 0.00 0.00 35 1014.0
20260831230623 82 296 1.0 4.0 0.00 0.00 0.00 34 1014.0
20260831225642 82 298 2.0 4.0 0.00 0.00 0.00 34 1013.8
20260831224630 82 298 1.0 4.0 0.00 0.00 0.00 33 1013.8